Zurück zum Katalog

COSMOS 839 DEB

AktivUNKNOWN
NORAD 10449·DEBRIS·🇷🇺 Russia

Gestartet Jul 8, 1976 von Plesetsk Cosmodrome

Loading…

Nächste Überflüge (nächste 24 Stunden)

TLE

AktuellSource: Space-Track

Epoche: Sep 14, 2026, 03:43 UTC

1 10449U 76067AA  26257.15514131 -.00000045  00000-0  29545-4 0  9996
2 10449  66.0345 167.2364 0762159 309.9909  43.6516 12.45571386281448

Verfolge COSMOS 839 DEB in Echtzeit mit AllMySat

Download on the App Store